Weather in Kozhevnikovo

Russia / Tomsk District     56°15′34″N   83°58′07″E
temp.,
°C
wind,
m/s
gust,
m/s
humid.,
%
clouds,
%
prec.,
mm/h
press.,
hPa
HPBL,
m
25 june, sat
sat2501:00+16sw389545 0.5 1004159
04:00+15sw399926 0.6 1003219
07:00+17sw3897100 0.6 1004273
10:00+22wsw368587 1.1 1004391
13:00+25sw576579 2.1 10021379
16:00+27wsw61058100 0.3 10011736
19:00+22w612827 2.1 1001554
22:00+20sw379097 0.3 1001177
26 june, sun
sun2601:00+18sw379818 0.3 1001166
04:00+18sw2498100 1.1 1000180
07:00+17sse3599100 10.2 1000238
10:00+17ese5129890 4.2 997440
13:00+29ssw7115524 4.4 9931488
16:00+30sw6115171 0.0 9921882
19:00+28sw6106164 0.2 9921369
22:00+20w410945 0.6 994584
27 june, mon
mon2701:00+17w259812 0.8 997120
04:00+15ssw249926 0.0 99898
07:00+17ssw379493 0.0 998274
10:00+22ssw46665 0.0 997711
13:00+24ssw465489 0.0 9961520
16:00+20wnw4685100 0.8 994481
19:00+18w610905 2.4 995849
22:00+13w612795 0.2 998773
28 june, tue
tue2801:00+13wsw6107396 0.3 999892
04:00+11wsw51077100 0.0 1000985
07:00+12sw51079100 0.0 10021065
10:00+13wsw5107487 0.1 10041041
13:00+17wsw686091 0.3 10051574
16:00+17wsw576275 0.2 10051495
19:00+16wsw4768100 0.4 10061191
22:00+13ssw3779100 0.1 1006203
29 june, wed
wed2901:00+10ssw379065 0.1 1006147
04:00+9ssw249499 0.0 100663
07:00+12s25785 0.0 1005193
10:00+18s455540 0.0 10031074
13:00+21s464728 0.0 10011887
16:00+22sse585075 0.0 9981781
19:00+22se711583 0.0 9941319
22:00+16sse3799100 18.4 994346